Location: The Rolnick Observatory
(41.1711°N, 73.3275°W)
Time: 10:08:03
(UTC-04:00)

ISS - Visible Passes

Search period start: 22 April 2019 00:00
Search period end: 02 May 2019 00:00
Orbit: 408 x 410 km, 51.6° (Epoch: 22 April)

Date Brightness Start Highest point End Pass type
(mag) Time Alt. Az. Time Alt. Az. Time Alt. Az.
27 Apr -1.1 04:52:37 10° SSE 04:54:07 13° SE 04:55:37 10° ESE visible
29 Apr -2.4 04:46:15 14° SSW 04:48:40 31° SE 04:51:38 10° ENE visible
30 Apr -1.6 03:57:29 17° SE 03:57:56 17° SE 04:00:11 10° E visible
01 May -3.8 04:41:21 23° SW 04:43:18 84° SE 04:46:38 10° NE visible
